Flag for Spain Weather past 2 weeks in Pamplona, Spain

Now
75 °F

Clear.


Feels Like: 77 °F
Forecast: 70 / 90 °F
Wind: 2 mph from Northeast

Location: Pamplona / Noain

Current Time: Aug 29, 2015 at 1:00:56 AM

Latest Report: Aug 29, 2015 at 12:00 AM


Visibility: 10 mi

Pressure: 30.07 "Hg

Humidity: 61%

Dew point: 61 °F

Location of PamplonaLocation

Historic Weather in Pamplona — Graph

°F

Pamplona temperature yesterday

Maximum temperature yesterday: 95 °F (at 6:00 PM)
Minimum temperature yesterday: 63 °F (at 7:30 AM)
Average temperature yesterday: 81 °F

Past Weeks' High & Low Weather Summary

 TemperatureHumidityPressure
High95 °F (Aug 28, 6:00 PM)100% (Aug 16, 7:30 AM)30.24 "Hg (Aug 16, 7:30 AM)
Low48 °F (Aug 16, 7:00 AM)18% (Aug 21, 7:00 PM)29.71 "Hg (Aug 23, 7:00 PM)
Average71 °F54%30.03 "Hg
* Reported Aug 13 11:00 PM — Aug 28 11:30 PM, Pamplona, Weather by CustomWeather, © 2015

Note: Actual official high and low records may vary slightly from our data, if they occured in-between our weather recording intervals... More about our weather records

Advertising

Pamplona weather history for previous 24 hours

 ConditionsComfort  
Time TempWeatherWind HumidityBarometerVisibility
11:30 PM
Fri, Aug 28
77 °FClear.3 mph57%30.07 "Hg10 mi
11:00 PM79 °FClear.1 mph54%30.07 "Hg10 mi
10:30 PM79 °FClear.1 mph54%30.04 "Hg10 mi
10:00 PM81 °FClear.2 mph51%30.04 "Hg10 mi
9:30 PM84 °FSunny.2 mph35%30.01 "Hg10 mi
9:00 PM84 °FSunny.5 mph29%30.01 "Hg10 mi
8:30 PM90 °FSunny.5 mph22%30.01 "Hg10 mi
8:00 PM91 °FSunny.6 mph21%30.01 "Hg10 mi
7:30 PM93 °FSunny.No wind20%30.01 "Hg10 mi
7:00 PM95 °FSunny.2 mph20%30.01 "Hg10 mi
6:30 PM93 °FPassing clouds.3 mph19%30.01 "HgN/A
6:00 PM95 °FPassing clouds.5 mph19%30.01 "HgN/A
5:30 PM93 °FPassing clouds.6 mph20%30.04 "HgN/A
5:00 PM93 °FPassing clouds.7 mph23%30.04 "HgN/A
4:30 PM93 °FSunny.7 mph23%30.04 "Hg10 mi
4:00 PM91 °FSunny.7 mph26%30.04 "Hg10 mi
3:30 PM91 °FSunny.5 mph28%30.07 "Hg10 mi
3:00 PM91 °FSunny.6 mph30%30.07 "Hg10 mi
2:30 PM90 °FSunny.3 mph33%30.07 "Hg10 mi
2:00 PM90 °FPassing clouds.3 mph33%30.07 "HgN/A
1:30 PM88 °FSunny.2 mph35%30.09 "Hg10 mi
1:00 PM86 °FPassing clouds.3 mph40%30.09 "HgN/A
12:30 PM84 °FSunny.2 mph43%30.09 "Hg10 mi
12:00 PM82 °FSunny.1 mph45%30.09 "Hg10 mi
11:30 AM81 °FSunny.No wind48%30.09 "Hg10 mi
11:00 AM79 °FSunny.No wind54%30.09 "Hg10 mi
10:30 AM75 °FSunny.1 mph61%30.09 "Hg10 mi
10:00 AM73 °FSunny.No wind57%30.09 "Hg10 mi
9:30 AM72 °FSunny.No wind61%30.09 "Hg10 mi
9:00 AM68 °FSunny.No wind64%30.09 "Hg10 mi
8:30 AM64 °FSunny.No wind73%30.09 "Hg10 mi
8:00 AM64 °FClear.1 mph73%30.07 "Hg10 mi
7:30 AM63 °FClear.1 mph73%30.07 "Hg10 mi
7:00 AM64 °FClear.1 mph68%30.07 "Hg10 mi
6:30 AM64 °FClear.1 mph68%30.04 "Hg10 mi
6:00 AM66 °FClear.No wind68%30.04 "Hg10 mi
5:30 AM66 °FClear.1 mph64%30.04 "Hg10 mi
Weather by CustomWeather, © 2015

See weather overviewHow to use our weather pages